Retour au catalogue

YUHENG

ActifScienceSSO
NORAD 44884·PAYLOAD·🇨🇳 China
Ce nom de satellite n'a pas encore été confirmé par des sources officielles.

Lancé Dec 20, 2019 depuis Taiyuan Satellite Launch Center

Loading…

Prochains Passages (prochaines 24 heures)

TLE

FraisSource: Space-Track

Époque: Sep 14, 2026, 22:02 UTC

1 44884U 19093F   26257.91820427  .00002749  00000-0  21784-3 0  9992
2 44884  97.7916 348.0226 0017264  88.5577 271.7625 15.01299397365880

Suivez YUHENG en temps réel avec AllMySat

Download on the App Store